Powrót do katalogu

STARLINK-36411

AktywnyŁącznośćSSO
NORAD 67608·PAYLOAD·🇺🇸 United States

Wystrzelony Jan 29, 2026 z Vandenberg Space Force Base

Loading…

Następne Przeloty (najbliższe 24 godziny)

TLE

ŚwieżeSource: CelesTrak SupGP

Epoka: Sep 14, 2026, 20:56 UTC

1 67608C 26018V   26257.87270833 -.00031362  00000+0 -97359-3 0  2573
2 67608  97.2852 321.3420 0000575 103.8779 245.0512 15.33454919    13

Śledź STARLINK-36411 w czasie rzeczywistym z AllMySat

Download on the App Store